Flag for Greenland Weather past 2 weeks in Nuuk, Greenland

Now
39 °F

Low clouds.


Feels Like: 35 °F
Forecast: 37 / 45 °F
Wind: 6 mph from North

Location: Godthaab / Nuuk

Current Time: Sep 2, 2014 at 3:22:40 AM

Latest Report: Sep 2, 2014 at 2:50 AM


Visibility: 4 mi

Pressure: 29.65 "Hg

Humidity: 93%

Dew point: 37 °F

Location of NuukLocation

Historic Weather in Nuuk — Graph

°F

Nuuk temperature yesterday

Maximum temperature yesterday: 43 °F (at 7:50 AM)
Minimum temperature yesterday: 39 °F (at 12:50 AM)
Average temperature yesterday: 41 °F

Past Weeks' High & Low Weather Summary

 TemperatureHumidityPressure
High61 °F (Aug 29, 2:50 PM)100% (Aug 18, 10:50 PM)30.30 "Hg (Aug 18, 10:50 PM)
Low39 °F (Aug 26, 6:50 AM)34% (Aug 29, 12:50 PM)29.24 "Hg (Aug 31, 9:50 PM)
Average46 °F81%29.77 "Hg
* Reported Aug 18 1:50 AM — Sep 2 1:50 AM, Nuuk, Weather by CustomWeather, © 2014

Note: Actual official high and low records may vary slightly from our data, if they occured in-between our weather recording intervals... More about our weather records

Advertising

Nuuk weather history for previous 24 hours

 ConditionsComfort  
Time TempWeatherWind HumidityBarometerVisibility
1:50 AM
Sep 2
41 °FLow clouds.9 mph87%29.65 "Hg6 mi
12:50 AM41 °FSprinkles. Low clouds.7 mph93%29.65 "Hg4 mi
11:50 PM
Sep 1
41 °FSprinkles. Low clouds.6 mph93%29.62 "Hg4 mi
10:50 PM41 °FLow clouds.7 mph93%29.62 "HgN/A
9:50 PM41 °FLow clouds.7 mph87%29.59 "HgN/A
8:50 PM41 °FDrizzle. Partly sunny.7 mph93%29.59 "Hg5 mi
7:50 PM41 °FPartly sunny.6 mph93%29.59 "HgN/A
6:50 PM43 °FPartly sunny.6 mph81%29.56 "HgN/A
5:50 PM43 °FPartly sunny.1 mph87%29.56 "HgN/A
4:50 PM41 °FPartly sunny.3 mph87%29.53 "HgN/A
2:50 PM43 °FPartly sunny.7 mph81%29.50 "HgN/A
1:50 PM43 °FScattered showers. Partly sunny.9 mph87%29.50 "HgN/A
12:50 PM43 °FScattered showers. Partly sunny.6 mph87%29.50 "HgN/A
11:50 AM41 °FPartly sunny.6 mph93%29.47 "HgN/A
10:50 AM41 °FScattered showers. Partly sunny.8 mph93%29.45 "HgN/A
9:50 AM43 °FScattered showers. Low clouds.8 mph87%29.45 "HgN/A
8:50 AM41 °FLow clouds.8 mph93%29.42 "HgN/A
7:50 AM43 °FLow clouds.9 mph87%29.39 "HgN/A
5:50 AM41 °FLow clouds.3 mph93%29.33 "HgN/A
4:50 AM41 °FLow clouds.2 mph93%29.33 "Hg5 mi
3:50 AM41 °FLow clouds.3 mph93%29.30 "HgN/A
Weather by CustomWeather, © 2014

See weather overviewHow to use our weather pages